{"data":{"norad_id":89379,"intl_designator":"","name":"UNKNOWN","alt_names":[],"object_type":"UNKNOWN","status":"UNKNOWN","operator":null,"country":null,"launch_date":null,"launch_site_code":null,"launch_vehicle":null,"mission":null,"orbit_class":"UNKNOWN","rcs_meters":null,"size_class":null,"mass_kg":null,"dimensions":null,"purposes":[],"wikipedia_slug":null,"has_3d_model":false,"image_url":null,"decayed_at":null,"tle_current":{"epoch":"2026-09-18T08:43:28.846848Z","epoch_age_seconds":199078,"freshness":"STALE","line1":"1 89379U          26261.36352832  .00001365  00000+0  17461-2 0  9990","line2":"2 89379 100.4877 302.8886 0047956 156.2333 204.1035 13.64652519618893","mean_motion":13.64652519,"eccentricity":0.0047956,"inclination_deg":100.4877,"raan_deg":302.8886,"arg_perigee_deg":156.2333,"mean_anomaly_deg":204.1035,"bstar":0.0017461,"rev_number":61889,"period_min":105.52136752404,"perigee_km":983.35890174615,"apogee_km":1054.304708952,"semimajor_km":7396.9688053491,"source":"CELESTRAK","updated_at":"2026-09-20T09:00:32.484858Z"}}}